Terminal Aerodrome Forecast
Issued by NWS Tulsa, OK

Home | Current Version | Previous Version | Text Only | Print | Product List | Glossary On
Versions: 1 2 3 4 5 6 7 8 9 10 11 12 13 14 15
000
FTUS44 KTSA 311100
TAFFSM
TAF
KFSM 311120Z 3112/0112 30006KT P6SM SKC
     FM311300 34013KT P6SM SCT025
     FM311700 34014G21KT P6SM SKC
     FM010000 01005KT P6SM SKC=

USA.gov is the U.S. government's official web portal to all federal, state and local government web resources and services.